• In Czech Republic
  • List of Countries
  • For 7 days
  • Water Temperature
  • Satellite Maps
  • Weather Map
  • Weather Widgets
  • user-avatar
    Login

    Hourly Weather Sidi Bu-l-Abbas

    Today, 20 August, Sunday

    Time Temperature Precipitation Wind Pressure Humidity
    00:00 +29°C° 0 mm 2 mps 722 mmHg 59%
    01:00 +29°C° 0 mm 2 mps 721 mmHg 62%
    02:00 +28°C° 0 mm 2 mps 721 mmHg 65%
    03:00 +28°C° 0 mm 1 mps 721 mmHg 68%
    04:00 +27°C° 0 mm 1 mps 721 mmHg 69%
    05:00 +27°C° 0 mm 1 mps 721 mmHg 71%
    06:00 +27°C° 0 mm 1 mps 722 mmHg 72%
    07:00 +28°C° 0 mm 1 mps 722 mmHg 66%
    08:00 +29°C° 0 mm 2 mps 722 mmHg 59%
    09:00 +30°C° 0 mm 2 mps 722 mmHg 53%
    10:00 +32°C° 0 mm 2 mps 723 mmHg 47%
    11:00 +34°C° 0 mm 3 mps 723 mmHg 42%
    12:00 +35°C° 0 mm 3 mps 723 mmHg 40%
    13:00 +36°C° 0 mm 4 mps 723 mmHg 37%
    14:00 +37°C° 0 mm 4 mps 723 mmHg 35%
    15:00 +37°C° 0 mm 4 mps 722 mmHg 33%
    16:00 +37°C° 0 mm 4 mps 722 mmHg 36%
    17:00 +36°C° 0 mm 4 mps 722 mmHg 39%
    18:00 +35°C° 0 mm 4 mps 722 mmHg 42%
    19:00 +34°C° 0 mm 4 mps 722 mmHg 46%
    20:00 +33°C° 0 mm 3 mps 722 mmHg 51%
    21:00 +30°C° 0 mm 2 mps 722 mmHg 55%
    22:00 +30°C° 0 mm 2 mps 722 mmHg 58%
    23:00 +29°C° 0 mm 2 mps 722 mmHg 60%

    Tomorrow, 21 August, Monday

    Time Temperature Precipitation Wind Pressure Humidity
    00:00 +29°C° 0 mm 2 mps 722 mmHg 63%
    01:00 +28°C° 0 mm 2 mps 722 mmHg 65%
    02:00 +28°C° 0 mm 1 mps 722 mmHg 67%
    03:00 +27°C° 0 mm 1 mps 722 mmHg 70%
    04:00 +27°C° 0 mm 1 mps 722 mmHg 71%
    05:00 +26°C° 0 mm 1 mps 722 mmHg 73%
    06:00 +26°C° 0 mm 1 mps 722 mmHg 74%
    07:00 +27°C° 0 mm 1 mps 722 mmHg 67%
    08:00 +29°C° 0 mm 2 mps 722 mmHg 60%
    09:00 +30°C° 0 mm 2 mps 723 mmHg 52%
    10:00 +31°C° 0 mm 2 mps 723 mmHg 46%
    11:00 +34°C° 0 mm 3 mps 723 mmHg 40%
    12:00 +35°C° 0 mm 3 mps 722 mmHg 33%
    13:00 +36°C° 0 mm 4 mps 722 mmHg 33%
    14:00 +36°C° 0 mm 4 mps 722 mmHg 33%
    15:00 +36°C° 0 mm 5 mps 721 mmHg 33%
    16:00 +35°C° 0 mm 5 mps 721 mmHg 35%
    17:00 +35°C° 0 mm 4 mps 721 mmHg 37%
    18:00 +34°C° 0 mm 4 mps 721 mmHg 39%
    19:00 +33°C° 0 mm 3 mps 721 mmHg 42%
    20:00 +31°C° 0 mm 3 mps 721 mmHg 44%
    21:00 +30°C° 0 mm 2 mps 722 mmHg 47%
    22:00 +30°C° 0 mm 2 mps 722 mmHg 50%
    23:00 +29°C° 0 mm 2 mps 722 mmHg 52%

    Day after tomorrow, 22 August, Tuesday

    Time Temperature Precipitation Wind Pressure Humidity
    00:00 +28°C° 0 mm 1 mps 722 mmHg 55%
    01:00 +28°C° 0 mm 1 mps 722 mmHg 57%
    02:00 +27°C° 0 mm 1 mps 721 mmHg 60%
    03:00 +26°C° 0 mm 1 mps 721 mmHg 63%
    04:00 +26°C° 0 mm 1 mps 721 mmHg 65%
    05:00 +26°C° 0 mm 1 mps 722 mmHg 66%
    06:00 +26°C° 0 mm 1 mps 722 mmHg 67%
    07:00 +27°C° 0 mm 1 mps 722 mmHg 59%
    08:00 +29°C° 0 mm 1 mps 722 mmHg 51%
    09:00 +30°C° 0 mm 1 mps 722 mmHg 42%
    10:00 +32°C° 0 mm 2 mps 722 mmHg 38%
    11:00 +34°C° 0 mm 2 mps 722 mmHg 33%
    12:00 +36°C° 0 mm 3 mps 722 mmHg 28%
    13:00 +36°C° 0 mm 4 mps 722 mmHg 27%
    14:00 +36°C° 0 mm 4 mps 721 mmHg 26%
    15:00 +36°C° 0 mm 5 mps 721 mmHg 25%
    16:00 +36°C° 0 mm 5 mps 721 mmHg 27%
    17:00 +35°C° 0 mm 4 mps 721 mmHg 28%
    18:00 +34°C° 0 mm 4 mps 720 mmHg 29%
    19:00 +33°C° 0 mm 3 mps 721 mmHg 31%
    20:00 +31°C° 0 mm 3 mps 721 mmHg 33%
    21:00 +30°C° 0 mm 2 mps 721 mmHg 36%
    22:00 +29°C° 0 mm 2 mps 721 mmHg 38%
    23:00 +29°C° 0 mm 1 mps 721 mmHg 39%

    23 August, Wednesday

    Time Temperature Precipitation Wind Pressure Humidity
    00:00 +28°C° 0 mm 1 mps 721 mmHg 41%
    01:00 +28°C° 0 mm 1 mps 721 mmHg 43%
    02:00 +27°C° 0 mm 1 mps 720 mmHg 45%
    03:00 +26°C° 0 mm 1 mps 720 mmHg 47%
    04:00 +26°C° 0 mm 1 mps 720 mmHg 49%
    05:00 +26°C° 0 mm 1 mps 720 mmHg 50%
    06:00 +23°C° 0 mm 0 mps 720 mmHg 52%
    07:00 +27°C° 0 mm 1 mps 721 mmHg 44%
    08:00 +29°C° 0 mm 1 mps 721 mmHg 36%
    09:00 +31°C° 0 mm 1 mps 722 mmHg 28%
    10:00 +33°C° 0 mm 1 mps 722 mmHg 24%
    11:00 +35°C° 0 mm 2 mps 722 mmHg 21%
    12:00 +37°C° 0 mm 3 mps 722 mmHg 18%
    13:00 +37°C° 0 mm 3 mps 721 mmHg 18%
    14:00 +37°C° 0 mm 4 mps 721 mmHg 19%
    15:00 +38°C° 0 mm 4 mps 721 mmHg 19%
    16:00 +37°C° 0 mm 4 mps 720 mmHg 22%
    17:00 +36°C° 0 mm 4 mps 720 mmHg 25%
    18:00 +35°C° 0 mm 4 mps 720 mmHg 27%
    19:00 +34°C° 0 mm 3 mps 720 mmHg 31%
    20:00 +32°C° 0 mm 2 mps 720 mmHg 34%
    21:00 +31°C° 0 mm 2 mps 721 mmHg 38%
    22:00 +30°C° 0 mm 1 mps 720 mmHg 40%
    23:00 +29°C° 0 mm 1 mps 720 mmHg 42%

    24 August, Thursday

    Time Temperature Precipitation Wind Pressure Humidity
    00:00 +29°C° 0 mm 1 mps 720 mmHg 44%
    01:00 +28°C° 0 mm 1 mps 720 mmHg 45%
    02:00 +28°C° 0 mm 1 mps 720 mmHg 47%
    03:00 +27°C° 0 mm 1 mps 720 mmHg 49%
    04:00 +28°C° 0 mm 1 mps 720 mmHg 48%
    05:00 +28°C° 0 mm 1 mps 720 mmHg 48%
    06:00 +28°C° 0 mm 1 mps 720 mmHg 48%
    07:00 +29°C° 0 mm 1 mps 720 mmHg 44%
    08:00 +30°C° 0 mm 1 mps 721 mmHg 40%
    09:00 +31°C° 0 mm 1 mps 721 mmHg 36%
    10:00 +33°C° 0 mm 1 mps 721 mmHg 32%
    11:00 +35°C° 0 mm 2 mps 721 mmHg 28%
    12:00 +37°C° 0 mm 2 mps 721 mmHg 24%
    13:00 +37°C° 0 mm 3 mps 720 mmHg 24%
    14:00 +37°C° 0 mm 3 mps 720 mmHg 25%
    15:00 +38°C° 0 mm 4 mps 720 mmHg 25%
    16:00 +37°C° 0 mm 4 mps 719 mmHg 27%
    17:00 +36°C° 0 mm 3 mps 719 mmHg 29%
    18:00 +36°C° 0 mm 3 mps 719 mmHg 30%
    19:00 +35°C° 0 mm 2 mps 719 mmHg 33%
    20:00 +34°C° 0 mm 2 mps 720 mmHg 36%
    21:00 +32°C° 0 mm 1 mps 720 mmHg 39%
    22:00 +32°C° 0 mm 1 mps 720 mmHg 40%
    23:00 +31°C° 0 mm 1 mps 720 mmHg 41%

    25 August, Friday

    Time Temperature Precipitation Wind Pressure Humidity
    00:00 +31°C° 0 mm 1 mps 720 mmHg 42%
    01:00 +30°C° 0.1 mm 1 mps 719 mmHg 44%
    02:00 +30°C° 0.1 mm 1 mps 719 mmHg 46%
    03:00 +29°C° 0.1 mm 1 mps 719 mmHg 48%
    04:00 +29°C° 0.1 mm 1 mps 719 mmHg 50%
    05:00 +29°C° 0.1 mm 1 mps 719 mmHg 51%
    06:00 +28°C° 0.1 mm 1 mps 719 mmHg 53%
    07:00 +30°C° 0 mm 1 mps 719 mmHg 48%
    08:00 +31°C° 0 mm 1 mps 720 mmHg 43%
    09:00 +32°C° 0 mm 2 mps 720 mmHg 39%
    10:00 +34°C° 0 mm 3 mps 720 mmHg 36%
    11:00 +35°C° 0 mm 3 mps 720 mmHg 33%
    12:00 +37°C° 0 mm 4 mps 719 mmHg 30%
    13:00 +36°C° 0 mm 4 mps 719 mmHg 31%
    14:00 +36°C° 0 mm 4 mps 718 mmHg 33%
    15:00 +36°C° 0 mm 5 mps 718 mmHg 34%
    16:00 +35°C° 0 mm 4 mps 718 mmHg 35%
    17:00 +34°C° 0 mm 3 mps 718 mmHg 37%
    18:00 +32°C° 0 mm 2 mps 718 mmHg 38%
    19:00 +32°C° 0.1 mm 2 mps 718 mmHg 40%
    20:00 +31°C° 0.1 mm 2 mps 719 mmHg 42%
    21:00 +30°C° 0.1 mm 3 mps 719 mmHg 44%
    22:00 +30°C° 0.1 mm 3 mps 719 mmHg 43%
    23:00 +31°C° 0.1 mm 3 mps 719 mmHg 42%
    Show more